Waarnemingen

Advertentie
Mijn weer
Gilze-Rijen, Nederland (6350): temperatuur & dauwpunt: 12.12.2017 13:00:00 - 18.12.2017 13:00:00 (CET)Gilze-Rijen, Nederland (6350): temperatuur 5cm: 12.12.2017 13:00:00 - 18.12.2017 13:00:00 (CET)Gilze-Rijen, Nederland (6350): windsnelheid & windstoten: 12.12.2017 13:00:00 - 18.12.2017 13:00:00 (CET)Gilze-Rijen, Nederland (6350): windrichting: 12.12.2017 13:00:00 - 18.12.2017 13:00:00 (CET)Gilze-Rijen, Nederland (6350): luchtdruk: 12.12.2017 13:00:00 - 18.12.2017 13:00:00 (CET)Gilze-Rijen, Nederland (6350): zicht: 12.12.2017 13:00:00 - 18.12.2017 13:00:00 (CET)Gilze-Rijen, Nederland (6350): neerslag: 12.12.2017 13:00:00 - 18.12.2017 13:00:00 (CET)
Datum & Tijd tt [°C] td [°C] tt 5cm [°C] ff [km/u] ff [kn] fx [km/u] fx [kn] dd ppp [hPa] vv [km] rr [mm]
18.12.2017 13:00:00 8,2 4,5 8,0 21 11 32 18 NNW 1024,4 10 0,0
18.12.2017 12:00:00 8,0 4,8 7,8 18 10 29 16 NNW 1024,1 10 0,0
18.12.2017 11:00:00 7,7 4,5 7,3 18 10 32 18 NNW 1023,6 10 0,0
18.12.2017 10:00:00 7,4 4,4 6,8 22 12 32 18 NNW 1022,4 10 0,0
18.12.2017 09:00:00 6,8 4,6 6,3 18 10 36 19 NNW 1021,4 9 0,0
18.12.2017 08:00:00 6,8 4,9 6,3 16 9 32 18 NNW 1020,3 8 0,0
18.12.2017 07:00:00 6,6 4,7 6,0 18 10 36 19 NNW 1019,0 9 0,2
18.12.2017 06:00:00 6,8 5,2 6,3 18 10 32 18 NW 1018,3 7 0,1
18.12.2017 05:00:00 6,9 5,3 6,5 18 10 32 18 NW 1017,4 10 0,0
18.12.2017 04:00:00 7,3 5,8 6,7 21 11 32 18 NW 1016,6 10 0,1
18.12.2017 03:00:00 5,6 5,1 5,1 13 7 25 14 WZW 1016,0 7 0,4
18.12.2017 02:00:00 4,3 3,6 4,0 15 8 29 16 ZW 1016,2 4,6 0,6
18.12.2017 01:00:00 3,8 3,0 3,4 18 10 40 21 ZZW 1016,6 2,7 0,6
18.12.2017 00:00:00 3,1 2,2 2,9 24 13 43 23 ZZW 1017,4 2,8 2,4
17.12.2017 23:00:00 2,8 1,8 2,6 31 17 47 25 Z 1018,0 3,0 0,7
17.12.2017 22:00:00 3,1 1,8 2,7 29 16 43 23 Z 1019,6 9 0,3
17.12.2017 21:00:00 2,9 1,4 2,7 24 13 36 19 Z 1020,8 7 0,1
17.12.2017 20:00:00 3,4 1,0 3,1 21 11 29 16 ZZW 1021,8 10 0,0
17.12.2017 19:00:00 3,6 1,6 3,2 15 8 - - ZZW 1022,6 10 0,0
17.12.2017 18:00:00 3,8 2,2 3,2 11 6 18 10 ZZW 1022,9 10 0,0
17.12.2017 17:00:00 4,1 2,5 3,3 8 4 14 8 ZW 1023,4 10 0,0
17.12.2017 16:00:00 4,7 2,5 4,1 8 4 14 8 ZW 1023,8 10 0,0
17.12.2017 15:00:00 5,4 2,5 5,1 11 6 18 10 WZW 1023,7 10 0,0
17.12.2017 14:00:00 5,9 3,1 6,3 9 5 18 10 WZW 1023,4 10 0,0
17.12.2017 13:00:00 5,4 3,0 5,8 9 5 14 8 ZW 1023,5 10 0,0
17.12.2017 12:00:00 4,1 2,6 4,4 8 4 11 6 ZW 1023,8 10 0,0
17.12.2017 11:00:00 2,7 1,5 2,5 5 3 11 6 ZW 1023,8 10 0,0
17.12.2017 10:00:00 0,9 0,1 -0,7 5 3 11 6 WZW 1023,4 4,1 0,0
17.12.2017 09:00:00 0,5 0,0 -0,7 9 5 14 8 WZW 1022,8 0,5 0,0
17.12.2017 08:00:00 0,4 -0,2 -0,9 9 5 11 6 WZW 1022,2 0,7 0,0
17.12.2017 07:00:00 0,7 0,1 -0,4 8 4 14 8 WZW 1021,7 1,8 0,0
17.12.2017 06:00:00 0,6 0,1 -0,6 8 4 14 8 ZW 1021,1 3,4 0,0
17.12.2017 05:00:00 1,6 0,8 0,9 11 6 18 10 WZW 1020,6 9 0,0
17.12.2017 04:00:00 1,7 0,9 1,0 9 5 14 8 WZW 1020,3 10 0,0
17.12.2017 03:00:00 1,8 0,9 1,1 5 3 18 10 W 1019,9 10 0,4
17.12.2017 02:00:00 1,5 0,7 0,8 11 6 22 12 WZW 1019,3 10 0,0
17.12.2017 01:00:00 2,1 0,9 1,3 13 7 22 12 WZW 1019,0 10 0,0
17.12.2017 00:00:00 2,5 1,6 2,1 8 4 18 10 ZW 1018,8 10 0,2
16.12.2017 23:00:00 3,1 1,7 2,7 13 7 29 16 W 1018,4 6 0,0
16.12.2017 22:00:00 3,1 1,4 2,7 16 9 29 16 W 1017,8 10 0,1
16.12.2017 21:00:00 3,0 1,6 2,8 18 10 32 18 W 1017,6 6 0,5
16.12.2017 20:00:00 2,7 1,5 2,1 8 4 14 8 WZW 1017,1 10 0,0
16.12.2017 19:00:00 2,4 1,2 1,4 9 5 22 12 ZW 1016,3 10 0,1
16.12.2017 18:00:00 3,1 1,7 2,6 13 7 36 19 WNW 1015,8 2,7 2,2
16.12.2017 17:00:00 3,5 0,8 2,7 15 8 32 18 W 1015,1 10 0,2
16.12.2017 16:00:00 4,0 1,3 3,4 15 8 25 14 W 1014,7 10 0,0
16.12.2017 15:00:00 5,9 2,1 5,9 11 6 22 12 W 1013,4 10 0,0
16.12.2017 14:00:00 5,3 2,1 5,0 13 7 22 12 W 1013,1 10 0,0
16.12.2017 13:00:00 5,2 3,1 5,0 9 5 18 10 WZW 1012,8 10 0,0
16.12.2017 12:00:00 4,0 2,2 3,8 9 5 14 8 WZW 1012,6 10 0,0
16.12.2017 11:00:00 2,8 1,7 2,3 4 2 22 12 - 1012,1 10 0,2
16.12.2017 10:00:00 2,8 0,8 1,7 11 6 14 8 W 1011,3 10 0,0
16.12.2017 09:00:00 1,4 0,2 0,3 9 5 14 8 WZW 1010,3 10 0,0
16.12.2017 08:00:00 0,4 -1,1 -0,6 9 5 14 8 W 1009,4 10 0,0
16.12.2017 07:00:00 1,6 0,5 0,0 9 5 14 8 WZW 1008,6 5 0,0
16.12.2017 06:00:00 1,3 0,4 0,2 11 6 14 8 W 1007,8 6 0,0
16.12.2017 05:00:00 1,1 0,2 0,7 9 5 18 10 W 1007,3 1,9 0,1
16.12.2017 04:00:00 1,8 1,0 1,3 11 6 14 8 W 1006,5 2,1 0,0
16.12.2017 03:00:00 2,2 1,7 1,7 9 5 14 8 WZW 1006,0 2,9 0,0
16.12.2017 02:00:00 1,9 1,4 0,3 5 3 11 6 WZW 1004,9 0,6 0,0
16.12.2017 01:00:00 0,6 0,0 -0,2 8 4 11 6 W 1004,5 0,6 0,0
16.12.2017 00:00:00 2,8 2,2 2,0 5 3 11 6 NW 1003,8 4,9 0,0
15.12.2017 23:00:00 3,2 2,2 2,9 4 2 7 4 - 1003,0 6 0,0
15.12.2017 22:00:00 3,7 2,5 3,3 5 3 11 6 N 1002,2 6 0,0
15.12.2017 21:00:00 3,9 2,7 3,6 5 3 11 6 N 1001,5 6 0,0
15.12.2017 20:00:00 3,1 2,7 2,9 2 1 4 2 N 1000,3 4,7 0,0
15.12.2017 19:00:00 2,7 2,2 2,1 0 0 7 4 N 999,3 4,4 0,0
15.12.2017 18:00:00 1,4 0,7 0,6 5 3 7 4 ONO 998,2 3,6 0,2
15.12.2017 17:00:00 3,9 2,4 3,6 8 4 11 6 Z 997,4 10 0,0
15.12.2017 16:00:00 4,5 2,4 4,3 8 4 18 10 Z 996,6 10 0,0
15.12.2017 15:00:00 4,5 2,2 4,4 13 7 22 12 Z 995,9 10 0,0
15.12.2017 14:00:00 4,5 2,2 4,6 15 8 29 16 Z 995,3 10 0,0
15.12.2017 13:00:00 4,3 2,0 4,5 15 8 25 14 Z 995,0 10 0,0
15.12.2017 12:00:00 4,0 1,8 4,1 16 9 25 14 Z 994,7 10 0,0
15.12.2017 11:00:00 3,8 1,7 3,9 16 9 25 14 Z 994,2 10 0,0
15.12.2017 10:00:00 3,4 1,7 3,4 16 9 25 14 ZZW 993,5 10 0,0
15.12.2017 09:00:00 2,9 1,7 2,6 16 9 25 14 Z 992,6 10 0,0
15.12.2017 08:00:00 2,7 1,3 2,1 13 7 25 14 ZZW 992,3 10 0,0
15.12.2017 07:00:00 2,1 1,1 1,6 15 8 25 14 ZZW 991,9 10 0,0
15.12.2017 06:00:00 1,3 0,3 0,8 16 9 25 14 Z 991,5 10 0,0
15.12.2017 05:00:00 1,4 0,3 0,7 11 6 22 12 ZZW 991,4 9 0,0
15.12.2017 04:00:00 1,0 0,0 0,1 15 8 22 12 ZZW 991,1 8 0,0
15.12.2017 03:00:00 1,1 0,0 0,3 13 7 22 12 ZZW 990,9 9 0,0
15.12.2017 02:00:00 1,0 0,0 0,3 13 7 22 12 ZZW 990,0 7 0,0
15.12.2017 01:00:00 1,0 -0,1 0,1 11 6 18 10 ZZW 989,9 8 0,0
15.12.2017 00:00:00 1,8 0,5 1,2 13 7 22 12 ZW 989,9 10 0,0
14.12.2017 23:00:00 0,8 -0,4 -0,3 8 4 18 10 ZZW 989,6 10 0,0
14.12.2017 22:00:00 1,5 0,1 0,5 9 5 18 10 ZZW 989,7 10 0,0
14.12.2017 21:00:00 2,1 0,7 1,0 11 6 14 8 ZZW 989,8 10 0,0
14.12.2017 20:00:00 2,7 1,0 1,8 9 5 25 14 ZZW 990,0 10 0,0
14.12.2017 19:00:00 3,5 1,5 2,8 18 10 32 18 ZZW 990,0 10 0,0
14.12.2017 18:00:00 3,7 1,5 3,0 18 10 29 16 ZZW 990,6 10 0,0
14.12.2017 17:00:00 4,2 2,0 3,8 16 9 32 18 ZZW 990,8 10 0,0
14.12.2017 16:00:00 4,6 1,9 4,2 21 11 32 18 ZZW 991,3 10 0,0
14.12.2017 15:00:00 4,3 2,2 4,2 21 11 36 19 ZW 991,5 10 0,2
14.12.2017 14:00:00 5,8 2,4 - 22 12 36 19 ZZW 991,9 10 0,0
14.12.2017 13:00:00 5,2 2,6 5,1 18 10 40 21 ZW 992,2 10 0,2
14.12.2017 12:00:00 5,1 2,2 4,9 21 11 40 21 ZW 992,6 - 0,0
14.12.2017 11:00:00 5,3 2,1 4,9 22 12 40 21 ZW 992,7 16 0,0
14.12.2017 10:00:00 4,8 2,0 4,3 18 10 36 19 ZW 992,4 10 0,0
14.12.2017 09:00:00 4,0 2,2 3,7 18 10 36 19 WZW 992,1 10 1,2
14.12.2017 08:00:00 3,4 2,3 3,0 22 12 36 19 WZW 992,5 9 1,5
14.12.2017 07:00:00 4,3 1,1 3,5 24 13 43 23 WZW 992,0 10 0,0
14.12.2017 06:00:00 3,7 2,3 3,3 24 13 54 29 W 991,0 10 0,5
14.12.2017 05:00:00 3,6 2,2 3,4 26 14 50 27 W 989,1 10 0,2
14.12.2017 04:00:00 1,3 0,7 0,7 15 8 36 19 ZW 988,5 6 2,3
14.12.2017 03:00:00 3,4 1,8 3,1 16 9 32 18 ZW 988,4 7 0,9
14.12.2017 02:00:00 4,3 2,0 3,6 15 8 22 12 ZZW 988,4 10 0,0
14.12.2017 01:00:00 4,2 1,9 3,4 11 6 29 16 ZW 988,6 10 0,0
14.12.2017 00:00:00 4,9 1,8 3,8 16 9 40 21 WZW 989,0 10 0,0
13.12.2017 23:00:00 5,8 2,9 5,2 22 12 36 19 W 989,1 10 0,0
13.12.2017 22:00:00 6,0 3,9 5,2 26 14 43 23 WZW 987,7 10 0,0
13.12.2017 21:00:00 6,3 4,4 5,9 15 8 54 29 WZW 987,1 10 2,2
13.12.2017 20:00:00 6,6 5,9 6,0 24 13 43 23 ZZW 987,9 10 4,3
13.12.2017 19:00:00 5,8 5,3 5,0 24 13 36 19 Z 990,1 5 2,1
13.12.2017 18:00:00 5,3 4,8 4,1 24 13 32 18 Z 992,6 6 0,8
13.12.2017 17:00:00 4,8 4,1 3,8 22 12 32 18 ZZW 994,3 10 0,3
13.12.2017 16:00:00 4,9 4,1 3,6 21 11 29 16 ZZW 996,0 10 0,1
13.12.2017 15:00:00 5,1 4,1 3,6 16 9 29 16 ZZW 997,1 10 0,1
13.12.2017 14:00:00 5,1 4,0 - 16 9 40 21 ZW 997,8 10 0,3
13.12.2017 13:00:00 4,5 3,9 - 24 13 43 23 ZZW 998,0 3,2 0,2
13.12.2017 12:00:00 3,9 3,2 2,7 28 15 50 27 ZZW 998,7 6 0,5
13.12.2017 11:00:00 3,6 2,7 2,2 34 18 47 25 Z 1000,1 6 0,5
13.12.2017 10:00:00 3,2 2,3 2,1 34 18 47 25 Z 1001,1 4,1 0,3
13.12.2017 09:00:00 3,3 2,0 2,0 31 17 50 27 Z 1002,3 3,7 0,6
13.12.2017 08:00:00 3,3 1,5 1,7 29 16 43 23 Z 1003,5 10 0,7
13.12.2017 07:00:00 2,5 0,9 1,6 28 15 43 23 Z 1005,1 10 0,1
13.12.2017 06:00:00 2,7 0,8 1,5 28 15 36 19 Z 1006,3 10 0,0
13.12.2017 05:00:00 1,9 0,4 1,0 29 16 40 21 Z 1007,6 10 0,0
13.12.2017 04:00:00 1,9 0,2 1,1 28 15 40 21 Z 1008,8 10 0,0
13.12.2017 03:00:00 2,0 0,2 1,0 26 14 40 21 Z 1009,8 10 0,0
13.12.2017 02:00:00 1,5 0,0 0,3 24 13 32 18 Z 1010,7 10 0,0
13.12.2017 01:00:00 0,5 -0,8 -0,7 18 10 25 14 Z 1011,6 10 0,0
13.12.2017 00:00:00 1,0 -0,4 -0,5 16 9 25 14 ZZW 1012,2 10 0,0
12.12.2017 23:00:00 0,4 -0,5 -0,8 15 8 22 12 ZZW 1012,8 9 0,0
12.12.2017 22:00:00 0,5 -0,5 -1,2 15 8 22 12 ZZW 1013,0 7 0,0
12.12.2017 21:00:00 -0,4 -1,1 -1,8 15 8 18 10 ZZW 1012,8 5 0,0
12.12.2017 20:00:00 0,1 -0,7 -1,4 15 8 18 10 Z 1012,5 4,3 0,0
12.12.2017 19:00:00 0,6 0,0 -0,5 11 6 18 10 ZZW 1012,5 3,5 0,0
12.12.2017 18:00:00 0,7 0,1 -0,5 11 6 14 8 ZZW 1011,9 4,3 0,0
12.12.2017 17:00:00 1,4 0,6 0,3 9 5 14 8 ZZW 1011,4 6 0,0
12.12.2017 16:00:00 1,8 0,8 0,9 13 7 25 14 WZW 1010,6 7 0,0
12.12.2017 15:00:00 1,9 0,8 1,0 15 8 25 14 ZW 1009,6 7 0,0
12.12.2017 14:00:00 1,8 0,8 1,0 15 8 25 14 ZZW 1008,8 10 0,0
12.12.2017 13:00:00 1,7 0,9 0,8 15 8 32 18 ZW 1008,5 7 0,5

tt = temperatuur
td = dauwpunt
tt 5cm = temperatuur 5cm
ff = windsnelheid
fx = windstoten
dd = windrichting
ppp = luchtdruk
vv = zicht
rr = neerslag

Weerstations in de omgeving